Location: Newark
(40.7360°N, 74.1730°W)
Time: 11:56:57
(UTC-05:00)

Amateur Radio Satellites - All Passes

Search period start: 19 January 2017 11:26
Search period end: 20 January 2017 11:26
Location: Newark, 40.7360°N, 74.1730°W

Satellite Date Start Highest point End Downlink Frequencies (MHz)
Time Altitude Azimuth
JAS-2 19 Jan 11:29:53 11:33:45 20° 269° (W) 11:37:52 435.910
Oscar 19 19 Jan 11:33:18 11:37:24 24° 65° (ENE) 11:41:32 437.125/150
VELOX 1 19 Jan 11:37:25 11:41:27 34° 98° (E) 11:45:26 145.980
Gurwin Techsat 1B 19 Jan 11:38:21 11:41:16 15° 60° (ENE) 11:44:11 435.225
BUGSAT 1 19 Jan 11:41:28 11:45:33 82° 258° (WSW) 11:49:36 437.445
PCSat 19 Jan 11:41:45 11:44:36 15° 257° (WSW) 11:47:27 145.827
Cosmos 2491 19 Jan 11:58:34 12:05:57 29° 68° (ENE) 12:13:19 435.465 / 435.565
QB50P1 19 Jan 11:59:34 12:02:11 16° 267° (W) 12:04:50 145.935-145.965
POLYITAN 1 19 Jan 12:03:38 12:05:59 15° 268° (W) 12:08:19 437.675
QB50P2 19 Jan 12:05:11 12:07:13 13° 269° (W) 12:09:15 145.880/145.840
50 SAT 19 Jan 12:09:14 12:12:47 63° 101° (ESE) 12:16:17 437.505
YUBILEINY 19 Jan 12:11:33 12:13:52 11° 73° (ENE) 12:16:12 435.215
DX 1 19 Jan 12:13:48 12:17:55 40° 99° (E) 12:21:59 434.975-435.025
UKube-1 19 Jan 12:15:42 12:19:31 30° 97° (E) 12:23:19 .
SPROUT 19 Jan 12:15:42 12:19:56 71° 101° (E) 12:24:11 437.525
AO-7 19 Jan 12:16:52 12:20:42 14° 45° (NE) 12:24:31 29.400- 29.500
CUSAT 1 19 Jan 12:23:38 12:28:41 18° 60° (ENE) 12:33:35 437.405
CUBEBUG 1 19 Jan 12:27:18 12:31:20 38° 289° (WNW) 12:35:19 437.445
AISAT 19 Jan 12:40:12 12:44:23 44° 288° (WNW) 12:48:32 437.250
AIST 1 19 Jan 12:43:22 12:45:12 12° 84° (E) 12:47:02
ESTCUBE 1 19 Jan 12:58:45 13:00:51 13° 298° (WNW) 13:02:57 437.505/2401.250
DANDE 19 Jan 13:01:34 13:04:40 13° 60° (ENE) 13:07:53 436.750
Oscar 19 19 Jan 13:11:33 13:16:28 42° 262° (W) 13:21:24 437.125/150
VELOX 1 19 Jan 13:14:20 13:17:41 22° 294° (WNW) 13:21:01 145.980
Gurwin Techsat 1B 19 Jan 13:15:16 13:20:34 75° 258° (WSW) 13:25:54 435.225
TISAT 1 19 Jan 13:48:04 13:52:15 76° 284° (WNW) 13:56:25 437.305
DX 1 19 Jan 13:50:49 13:53:47 18° 295° (WNW) 13:56:44 434.975-435.025
ITAMSAT 1 19 Jan 13:51:33 13:56:32 50° 71° (ENE) 14:01:31 435.822/435.867
UKube-1 19 Jan 13:51:59 13:55:24 23° 293° (WNW) 13:58:47 .
BEESAT 19 Jan 13:53:31 13:57:17 23° 94° (E) 14:01:02 436.000
SPROUT 19 Jan 13:54:13 13:55:16 11° 298° (WNW) 13:56:19 437.525
Cosmos 2491 19 Jan 13:54:44 14:03:21 62° 268° (W) 14:11:58 435.465 / 435.565
SWISSCUBE 19 Jan 13:54:49 13:58:52 26° 96° (E) 14:02:52 437.505
YUBILEINY 19 Jan 14:00:08 14:08:49 67° 92° (E) 14:17:34 435.215
AO-7 19 Jan 14:03:36 14:11:44 60° 66° (ENE) 14:19:56 29.400- 29.500
CUSAT 1 19 Jan 14:03:48 14:11:51 80° 80° (E) 14:19:20 437.405
AO-85 19 Jan 14:04:58 14:09:44 89° 122° (ESE) 14:14:09 145.980
Cosmos 2504 19 Jan 14:05:10 14:13:04 40° 88° (E) 14:20:35 435.465 / 435.565
AIST 1 19 Jan 14:18:00 14:22:16 53° 280° (W) 14:26:33
DANDE 19 Jan 14:41:03 14:48:41 61° 77° (ENE) 14:56:56 436.750
ITUPSAT 1 19 Jan 14:54:58 14:59:48 86° 284° (WNW) 15:04:37 437.325
SO-50 19 Jan 15:14:32 15:16:58 14° 39° (NE) 15:19:21 436.795
BRITE-PL 19 Jan 15:21:33 15:26:38 35° 69° (ENE) 15:31:41 437.365/2234.400
BEESAT 19 Jan 15:30:45 15:35:09 37° 290° (WNW) 15:39:32 436.000
SWISSCUBE 19 Jan 15:32:23 15:36:38 33° 292° (WNW) 15:40:54 437.505
ITAMSAT 1 19 Jan 15:32:37 15:36:16 19° 267° (W) 15:39:55 435.822/435.867
GOMX 1 19 Jan 15:33:07 15:36:43 19° 65° (ENE) 15:40:14 467.674
MOZHAYETS 4 19 Jan 15:35:56 15:40:36 82° 102° (ESE) 15:45:15
STARS 19 Jan 15:45:34 15:47:44 13° 92° (E) 15:49:54 437.465
CUSAT 1 19 Jan 15:47:13 15:52:50 22° 278° (W) 15:58:13 437.405
AO-85 19 Jan 15:48:26 15:50:40 13° 319° (NW) 15:52:51 145.980
NOAA 15 19 Jan 15:52:15 15:54:42 13° 59° (ENE) 15:57:09 137.62
AO-7 19 Jan 15:57:48 16:04:53 31° 264° (W) 16:12:03 29.400- 29.500
Cosmos 2504 19 Jan 15:58:09 16:06:20 44° 285° (WNW) 16:14:07 435.465 / 435.565
YUBILEINY 19 Jan 15:59:10 16:06:19 27° 293° (WNW) 16:13:32 435.215
BEESAT 3 19 Jan 16:00:40 16:04:19 41° 117° (ESE) 16:08:03 437.485
M-CUBED/EXP-1 PRIME 19 Jan 16:01:35 16:04:52 46° 105° (ESE) 16:08:00 437.505
O/OREOS (USA 219) 19 Jan 16:06:23 16:10:52 68° 67° (ENE) 16:15:22 437.305
LilacSat-2 19 Jan 16:17:35 16:19:42 15° 66° (ENE) 16:21:49 437.200
DOVE 4 19 Jan 16:18:01 16:21:26 19° 66° (ENE) 16:24:42 437.250
CUBESAT XI-V 19 Jan 16:18:53 16:23:11 35° 97° (E) 16:27:26 437.345
KKS-1 19 Jan 16:23:48 16:28:14 82° 103° (ESE) 16:32:39 437.445
DANDE 19 Jan 16:24:27 16:31:03 31° 272° (W) 16:38:02 436.750
HORYU 2 19 Jan 16:31:09 16:35:31 72° 76° (ENE) 16:39:56 437.375
CUTE-I 19 Jan 16:33:47 16:38:19 30° 66° (ENE) 16:42:52 437.470
ITUPSAT 1 19 Jan 16:36:16 16:36:51 10° 301° (WNW) 16:37:25 437.325
AUBIESAT-1 19 Jan 16:39:10 16:42:30 63° 290° (WNW) 16:45:44 437.475
BEESAT 2 19 Jan 16:42:52 16:46:41 52° 118° (ESE) 16:50:34 435.950
HO-68 19 Jan 16:50:35 16:54:17 15° 52° (NE) 16:57:59 435.675
SO-50 19 Jan 16:53:32 16:58:04 88° 235° (SW) 17:02:31 436.795
BRITE-PL 19 Jan 16:59:53 17:05:00 34° 265° (W) 17:10:07 437.365/2234.400
GOMX 1 19 Jan 17:08:58 17:14:20 60° 260° (W) 17:19:31 467.674
NOAA 18 19 Jan 17:11:50 17:16:51 38° 68° (ENE) 17:21:54 137.9125
Cubesat XI-IV 19 Jan 17:15:43 17:20:59 70° 74° (ENE) 17:26:17 437.490
MOZHAYETS 4 19 Jan 17:15:48 17:17:04 11° 299° (WNW) 17:18:20
STARS 19 Jan 17:20:08 17:24:23 53° 287° (WNW) 17:28:37 437.465
NOAA 15 19 Jan 17:28:25 17:33:43 85° 256° (WSW) 17:39:04 137.62
BEESAT 3 19 Jan 17:39:17 17:42:08 19° 314° (NW) 17:45:00 437.485
O/OREOS (USA 219) 19 Jan 17:48:29 17:49:38 11° 263° (W) 17:50:47 437.305
LilacSat-2 19 Jan 17:50:08 17:53:39 38° 262° (W) 17:57:12 437.200
CINEMA 3 19 Jan 17:53:28 17:57:32 36° 72° (ENE) 18:01:29 145.822/145.860
DOVE 4 19 Jan 17:53:51 17:58:46 50° 260° (W) 18:03:26 437.250
CUTE 1.7 + AOD 2 19 Jan 17:55:17 17:58:29 21° 67° (ENE) 18:01:43 437.475
CUBESAT XI-V 19 Jan 17:56:38 18:00:22 24° 293° (WNW) 18:04:04 437.345
KKS-1 19 Jan 18:03:43 18:04:06 10° 300° (WNW) 18:04:30 437.445
CUTE-I 19 Jan 18:13:26 18:18:14 35° 263° (W) 18:23:05 437.470
BEESAT 2 19 Jan 18:22:10 18:24:46 17° 316° (NW) 18:27:24 435.950
Cosmos 2499 19 Jan 18:22:28 18:29:07 27° 84° (E) 18:35:26 435.465 / 435.565
CANX-2 19 Jan 18:23:14 18:27:19 49° 73° (ENE) 18:31:28 2200.000
AIST 2 19 Jan 18:33:20 18:35:45 15° 109° (ESE) 18:38:12 435.215
HO-68 19 Jan 18:33:38 18:40:48 74° 71° (ENE) 18:48:00 435.675
SEEDS 19 Jan 18:36:34 18:40:30 39° 72° (ENE) 18:44:28 437.485
COMPASS 1 19 Jan 18:44:07 18:47:49 31° 71° (ENE) 18:51:33 437.405
GONETS M04 19 Jan 18:48:36 18:56:02 33° 84° (E) 19:03:31
Oscar 11 19 Jan 18:50:51 18:52:28 12° 63° (ENE) 18:54:06 145.826/435.025
NOAA 18 19 Jan 18:52:52 18:57:33 29° 264° (W) 19:02:16 137.9125
CUBEBUG 2 19 Jan 18:54:54 18:58:46 38° 72° (ENE) 19:02:37 437.445
AAUSAT CUBESAT 2 19 Jan 18:56:22 19:00:06 33° 71° (ENE) 19:03:52 437.432
Cubesat XI-IV 19 Jan 18:58:48 19:01:34 14° 270° (W) 19:04:20 437.490
STRAND 1 19 Jan 19:17:01 19:22:08 69° 102° (ESE) 19:27:16 437.568
FUNcube-1 19 Jan 19:24:02 19:27:31 27° 69° (ENE) 19:31:03 145.935
UWE-3 19 Jan 19:25:07 19:29:08 52° 74° (ENE) 19:33:11 435.000/436.395/437.385
CUTE 1.7 + AOD 2 19 Jan 19:30:17 19:34:06 32° 263° (W) 19:37:59 437.475
CINEMA 3 19 Jan 19:31:35 19:34:46 19° 266° (W) 19:37:53 145.822/145.860
ZACube-1 19 Jan 19:45:58 19:49:59 53° 74° (ENE) 19:54:02 437.345
CANX-2 19 Jan 20:01:17 20:03:28 14° 269° (W) 20:05:38 2200.000
HUMSAT D 19 Jan 20:06:56 20:09:09 14° 65° (ENE) 20:11:24 437.325/437.525
AIST 2 19 Jan 20:09:49 20:13:48 48° 306° (NW) 20:17:52 435.215
Cosmos 2499 19 Jan 20:13:20 20:21:43 62° 281° (W) 20:29:32 435.465 / 435.565
SEEDS 19 Jan 20:13:36 20:16:21 17° 268° (W) 20:19:07 437.485
COMPASS 1 19 Jan 20:20:13 20:23:24 21° 266° (W) 20:26:36 437.405
DELFI C3 19 Jan 20:21:26 20:25:08 36° 72° (ENE) 20:28:50 145.870
PRISM 19 Jan 20:22:54 20:25:27 16° 93° (E) 20:27:59 437.425
Oscar 11 19 Jan 20:23:45 20:28:02 66° 260° (W) 20:32:21 145.826/435.025
HO-68 19 Jan 20:24:08 20:29:09 20° 269° (W) 20:34:11 435.675
AAUSAT CUBESAT 2 19 Jan 20:32:33 20:35:38 20° 267° (W) 20:38:42 437.432
CUBEBUG 2 19 Jan 20:32:53 20:35:33 16° 267° (W) 20:38:12 437.445
GONETS M04 19 Jan 20:44:00 20:52:25 53° 284° (WNW) 21:00:57
STRAND 1 19 Jan 20:57:48 21:00:44 15° 299° (WNW) 21:03:40 437.568
ANTELSAT 19 Jan 20:59:00 21:01:11 13° 91° (E) 21:03:23 437.575/2403.000
FUNcube-1 19 Jan 21:00:27 21:03:44 23° 265° (W) 21:07:03 145.935
ISS 19 Jan 21:02:16 21:03:07 11° 129° (SE) 21:03:57 145.825
UWE-3 19 Jan 21:04:22 21:05:55 12° 269° (W) 21:07:30 435.000/436.395/437.385
ZACube-1 19 Jan 21:25:07 21:26:37 12° 270° (W) 21:28:07 437.345
HUMSAT D 19 Jan 21:40:24 21:44:20 47° 261° (W) 21:48:21 437.325/437.525
CUBEBUG 1 19 Jan 21:48:04 21:50:44 16° 64° (ENE) 21:53:25 437.445
PRISM 19 Jan 21:57:03 22:00:55 39° 289° (WNW) 22:04:44 437.425
DELFI C3 19 Jan 21:57:30 22:00:03 16° 267° (W) 22:02:38 145.870
AISAT 19 Jan 22:02:26 22:05:00 15° 64° (ENE) 22:07:35 437.250
UNISAT 6 19 Jan 22:05:06 22:09:32 73° 101° (E) 22:14:03 437.425
Cosmos 2499 19 Jan 22:14:35 22:16:27 11° 301° (WNW) 22:18:17 435.465 / 435.565
TIGRISAT 19 Jan 22:18:43 22:23:09 87° 288° (WNW) 22:27:41 435.000
ESTCUBE 1 19 Jan 22:18:57 22:23:23 57° 73° (ENE) 22:27:51 437.505/2401.250
BY70-1 19 Jan 22:25:57 22:28:47 44° 262° (W) 22:31:52 436.1900
ANTELSAT 19 Jan 22:33:51 22:38:11 56° 286° (WNW) 22:42:37 437.575/2403.000
VELOX 1 19 Jan 22:34:19 22:38:12 30° 69° (ENE) 22:42:06 145.980
JAS-2 19 Jan 22:35:19 22:42:20 52° 99° (E) 22:49:52 435.910
POPSAT HIP 1 19 Jan 22:35:24 22:37:25 13° 91° (E) 22:39:27 437.405
ISS 19 Jan 22:35:53 22:39:08 80° 325° (NW) 22:42:23 145.825
AO-85 19 Jan 22:36:50 22:40:43 64° 56° (NE) 22:44:35 145.980
RS-15 19 Jan 22:38:03 22:48:52 44° 108° (ESE) 23:00:04 29.354- 29.394
50 SAT 19 Jan 22:43:52 22:46:47 24° 70° (ENE) 22:49:43 437.505
DUCHIFAT 1 19 Jan 22:46:48 22:49:18 15° 92° (E) 22:51:48 145.980
NANOSAT C BR1 19 Jan 22:51:29 22:54:31 19° 94° (E) 22:57:33 145.865
SPROUT 19 Jan 23:08:32 23:12:38 50° 73° (ENE) 23:16:46 437.525
DX 1 19 Jan 23:08:54 23:12:50 34° 70° (ENE) 23:16:49 434.975-435.025
UKube-1 19 Jan 23:09:57 23:13:33 26° 68° (ENE) 23:17:08 .
CUBEBUG 1 19 Jan 23:22:20 23:26:37 49° 260° (W) 23:30:54 437.445
BUGSAT 1 19 Jan 23:24:50 23:26:55 14° 92° (E) 23:29:00 437.445
AISAT 19 Jan 23:36:41 23:41:01 53° 260° (W) 23:45:23 437.250
QB50P1 19 Jan 23:42:25 23:46:38 81° 103° (ESE) 23:50:52 145.935-145.965
UNISAT 6 19 Jan 23:44:12 23:45:40 12° 298° (WNW) 23:47:10 437.425
POLYITAN 1 19 Jan 23:46:19 23:50:34 90° 117° (ESE) 23:54:48 437.675
QB50P2 19 Jan 23:47:33 23:51:47 82° 285° (WNW) 23:56:02 145.880/145.840
ESTCUBE 1 19 Jan 23:58:18 00:00:32 14° 269° (W) 00:02:47 437.505/2401.250
Cosmos 2504 20 Jan 00:01:39 00:03:22 11° 58° (ENE) 00:05:05 435.465 / 435.565
POPSAT HIP 1 20 Jan 00:09:23 00:13:28 50° 287° (WNW) 00:17:34 437.405
VELOX 1 20 Jan 00:11:00 00:14:38 24° 265° (W) 00:18:17 145.980
YUBILEINY 20 Jan 00:11:08 00:18:52 33° 70° (ENE) 00:26:30 435.215
ISS 20 Jan 00:13:43 00:16:02 18° 342° (NNW) 00:18:21 145.825
50 SAT 20 Jan 00:17:18 00:19:57 20° 265° (W) 00:22:38 437.505
BEESAT 3 20 Jan 00:17:52 00:21:13 25° 48° (NE) 00:24:33 437.485
JAS-2 20 Jan 00:20:52 00:27:03 33° 295° (WNW) 00:33:42 435.910
DUCHIFAT 1 20 Jan 00:21:12 00:25:10 43° 288° (WNW) 00:29:08 145.980
AIST 1 20 Jan 00:25:22 00:29:16 33° 77° (ENE) 00:33:07
NANOSAT C BR1 20 Jan 00:26:30 00:30:19 34° 289° (WNW) 00:34:08 145.865
ITUPSAT 1 20 Jan 00:26:54 00:28:48 12° 60° (ENE) 00:30:42 437.325
PCSat 20 Jan 00:37:29 00:42:52 74° 116° (ESE) 00:48:18 145.827
TISAT 1 20 Jan 00:38:55 00:43:04 75° 75° (ENE) 00:47:14 437.305
UKube-1 20 Jan 00:45:47 00:49:28 27° 263° (W) 00:53:11 .
DX 1 20 Jan 00:45:48 00:49:06 21° 266° (W) 00:52:25 434.975-435.025
SPROUT 20 Jan 00:46:42 00:48:50 13° 269° (W) 00:50:57 437.525
RS-15 20 Jan 00:49:14 01:00:58 60° 311° (NW) 01:13:13 29.354- 29.394
BUGSAT 1 20 Jan 00:58:40 01:02:30 44° 287° (WNW) 01:06:21 437.445
BEESAT 20 Jan 00:59:39 01:03:34 26° 67° (ENE) 01:07:29 436.000
Cosmos 2491 20 Jan 00:59:57 01:07:22 33° 84° (E) 01:14:47 435.465 / 435.565
BEESAT 2 20 Jan 01:00:56 01:04:33 30° 50° (NE) 01:08:07 435.950
SWISSCUBE 20 Jan 01:00:59 01:05:05 30° 68° (ENE) 01:09:13 437.505
Oscar 19 20 Jan 01:22:59 01:28:10 70° 102° (ESE) 01:33:17 437.125/150
Gurwin Techsat 1B 20 Jan 01:31:50 01:36:55 44° 99° (E) 01:41:58 435.225
Cosmos 2504 20 Jan 01:51:00 01:58:25 69° 80° (E) 02:05:31 435.465 / 435.565
AUBIESAT-1 20 Jan 01:51:43 01:53:50 14° 60° (ENE) 01:55:53 437.475
ISS 20 Jan 01:52:04 01:53:31 12° 3° (N) 01:54:57 145.825
BEESAT 3 20 Jan 01:55:18 01:58:50 30° 245° (WSW) 02:02:21 437.485
ITUPSAT 1 20 Jan 02:01:13 02:05:58 78° 257° (WSW) 02:10:46 437.325
AIST 1 20 Jan 02:03:37 02:06:34 18° 273° (W) 02:09:30
ITAMSAT 1 20 Jan 02:05:36 02:09:06 18° 92° (E) 02:12:35 435.822/435.867
AO-7 20 Jan 02:07:16 02:12:34 18° 91° (E) 02:17:49 29.400- 29.500
YUBILEINY 20 Jan 02:07:31 02:16:02 56° 270° (W) 02:24:29 435.215
PCSat 20 Jan 02:23:01 02:26:51 19° 316° (NW) 02:30:41 145.827
BEESAT 20 Jan 02:36:56 02:41:11 33° 263° (W) 02:45:29 436.000
MOZHAYETS 4 20 Jan 02:37:11 02:41:43 74° 75° (ENE) 02:46:19
PHONESAT 2.4 20 Jan 02:38:43 02:40:57 45° 164° (SSE) 02:43:09 2401.200-2431.200
SWISSCUBE 20 Jan 02:38:44 02:42:49 28° 264° (W) 02:46:55 437.505
BEESAT 2 20 Jan 02:38:52 02:42:12 25° 247° (WSW) 02:45:31 435.950
STARS 20 Jan 02:42:33 02:44:31 13° 62° (ENE) 02:46:28 437.465
M-CUBED/EXP-1 PRIME 20 Jan 02:46:16 02:50:39 66° 70° (ENE) 02:54:46 437.505
AIST 2 20 Jan 02:54:11 02:56:19 13° 41° (NE) 02:58:25 435.215
Cosmos 2491 20 Jan 02:55:19 03:03:45 53° 283° (WNW) 03:12:16 435.465 / 435.565
Oscar 19 20 Jan 03:03:56 03:06:53 15° 299° (WNW) 03:09:48 437.125/150
CUSAT 1 20 Jan 03:04:29 03:09:24 75° 97° (E) 03:15:55 437.405
RS-15 20 Jan 03:07:16 03:16:55 26° 341° (NNW) 03:26:43 29.354- 29.394
Gurwin Techsat 1B 20 Jan 03:12:24 03:16:34 24° 295° (WNW) 03:20:44 435.225
KKS-1 20 Jan 03:21:10 03:25:35 73° 75° (ENE) 03:30:02 437.445
CUBESAT XI-V 20 Jan 03:21:44 03:25:55 33° 70° (ENE) 03:30:09 437.345
AUBIESAT-1 20 Jan 03:23:35 03:27:51 58° 254° (WSW) 03:31:52 437.475
ISS 20 Jan 03:28:12 03:30:53 23° 23° (NNE) 03:33:35 145.825
ITAMSAT 1 20 Jan 03:43:48 03:48:53 55° 289° (WNW) 03:53:57 435.822/435.867
Cosmos 2504 20 Jan 03:45:59 03:50:54 20° 280° (W) 03:55:44 435.465 / 435.565
DANDE 20 Jan 03:50:29 03:54:04 49° 93° (E) 03:58:50 436.750
AO-7 20 Jan 03:57:54 04:06:19 90° 303° (WNW) 04:14:40 29.400- 29.500
PHONESAT 2.4 20 Jan 04:12:40 04:14:58 87° 179° (S) 04:17:15 2401.200-2431.200
STARS 20 Jan 04:15:59 04:20:19 63° 258° (WSW) 04:24:41 437.465
MOZHAYETS 4 20 Jan 04:18:51 04:19:24 10° 271° (W) 04:19:57
HORYU 2 20 Jan 04:23:48 04:26:06 14° 92° (E) 04:28:23 437.375
M-CUBED/EXP-1 PRIME 20 Jan 04:23:59 04:25:21 11° 263° (W) 04:26:42 437.505
AIST 2 20 Jan 04:31:05 04:35:21 84° 241° (WSW) 04:39:35 435.215
CUSAT 1 20 Jan 04:49:04 04:52:28 16° 302° (WNW) 04:56:20 437.405
CUTE-I 20 Jan 04:53:12 04:54:38 11° 89° (E) 04:56:05 437.470
STRAND 1 20 Jan 04:57:15 04:59:13 12° 59° (ENE) 05:01:11 437.568
CUBESAT XI-V 20 Jan 04:59:29 05:03:19 25° 266° (W) 05:07:10 437.345
GONETS M04 20 Jan 04:59:33 05:04:33 16° 60° (ENE) 05:09:32
ISS 20 Jan 05:04:22 05:07:32 54° 221° (SW) 05:10:43 145.825
BRITE-PL 20 Jan 05:05:10 05:10:08 88° 282° (WNW) 05:14:39 437.365/2234.400
GOMX 1 20 Jan 05:11:52 05:16:02 39° 97° (E) 05:19:59 467.674
LilacSat-2 20 Jan 05:23:49 05:26:51 21° 95° (E) 05:29:52 437.200
RS-15 20 Jan 05:25:40 05:35:21 25° 17° (NNE) 05:44:53 29.354- 29.394
Cubesat XI-IV 20 Jan 05:33:37 05:38:12 28° 96° (E) 05:42:44 437.490
NOAA 18 20 Jan 05:35:16 05:38:25 15° 91° (E) 05:41:35 137.9125
DANDE 20 Jan 05:35:28 05:37:35 13° 301° (WNW) 05:39:58 436.750
NOAA 15 20 Jan 05:44:05 05:49:00 37° 98° (E) 05:53:52 137.62
PHONESAT 2.4 20 Jan 05:46:47 05:48:57 36° 197° (SSW) 05:51:05 2401.200-2431.200
AO-7 20 Jan 05:52:09 05:58:00 22° 308° (NW) 06:03:51 29.400- 29.500
DOVE 4 20 Jan 05:53:13 05:57:11 40° 98° (E) 06:01:04 437.250
HORYU 2 20 Jan 05:58:36 06:02:56 54° 288° (WNW) 06:07:17 437.375
HO-68 20 Jan 06:04:40 06:07:38 13° 88° (E) 06:10:35 435.675
Cosmos 2499 20 Jan 06:05:17 06:12:06 44° 75° (ENE) 06:18:45 435.465 / 435.565
O/OREOS (USA 219) 20 Jan 06:18:11 06:22:39 86° 111° (ESE) 06:27:08 437.305
CUTE-I 20 Jan 06:29:58 06:35:20 86° 285° (WNW) 06:40:40 437.470
STRAND 1 20 Jan 06:32:33 06:37:38 87° 256° (WSW) 06:42:47 437.568
BRITE-PL 20 Jan 06:47:29 06:47:40 10° 302° (WNW) 06:47:50 437.365/2234.400
GOMX 1 20 Jan 06:50:47 06:53:47 18° 295° (WNW) 06:56:42 467.674
GONETS M04 20 Jan 06:54:05 07:02:58 78° 81° (E) 07:11:49
LilacSat-2 20 Jan 06:57:51 07:01:05 26° 290° (WNW) 07:04:19 437.200
SO-50 20 Jan 07:07:30 07:11:40 32° 114° (ESE) 07:15:49 436.795
PRISM 20 Jan 07:12:58 07:14:42 12° 63° (ENE) 07:16:26 437.425
Cubesat XI-IV 20 Jan 07:13:26 07:18:17 36° 292° (WNW) 07:23:08 437.490
NOAA 18 20 Jan 07:14:07 07:19:33 67° 288° (WNW) 07:24:57 137.9125
CUTE 1.7 + AOD 2 20 Jan 07:14:55 07:19:01 41° 98° (E) 07:23:04 437.475
UWE-3 20 Jan 07:16:46 07:18:08 11° 90° (E) 07:19:30 435.000/436.395/437.385
NOAA 15 20 Jan 07:24:08 07:28:36 28° 294° (WNW) 07:33:03 137.62
CINEMA 3 20 Jan 07:24:31 07:28:44 83° 281° (WNW) 07:33:01 145.822/145.860
DOVE 4 20 Jan 07:31:58 07:34:33 16° 295° (WNW) 07:37:06 437.250
ZACube-1 20 Jan 07:36:29 07:37:45 11° 90° (E) 07:39:01 437.345
RS-15 20 Jan 07:39:19 07:51:29 57° 48° (NE) 08:03:12 29.354- 29.394
CANX-2 20 Jan 07:43:56 07:48:15 77° 285° (WNW) 07:52:32 2200.000
PCSat 20 Jan 07:45:00 07:46:20 11° 36° (NE) 07:47:42 145.827
HO-68 20 Jan 07:49:09 07:56:23 80° 105° (ESE) 08:03:33 435.675
SEEDS 20 Jan 07:55:46 08:00:03 82° 103° (ESE) 08:04:18 437.485
Cosmos 2499 20 Jan 07:58:54 08:04:54 30° 275° (W) 08:10:51 435.465 / 435.565
ANTELSAT 20 Jan 07:58:55 08:00:17 11° 62° (ENE) 08:01:39 437.575/2403.000
O/OREOS (USA 219) 20 Jan 08:01:29 08:02:42 11° 309° (NW) 08:03:56 437.305
COMPASS 1 20 Jan 08:01:53 08:06:05 62° 100° (E) 08:10:13 437.405
Oscar 11 20 Jan 08:11:42 08:15:11 23° 94° (E) 08:18:38 145.826/435.025
CUTE-I 20 Jan 08:12:37 08:14:33 12° 302° (WNW) 08:16:29 437.470
AAUSAT CUBESAT 2 20 Jan 08:13:32 08:17:43 64° 101° (E) 08:21:49 437.432
CUBEBUG 2 20 Jan 08:21:28 08:25:49 85° 281° (W) 08:30:17 437.445
PRISM 20 Jan 08:45:21 08:49:28 60° 259° (W) 08:53:37 437.425
FUNcube-1 20 Jan 08:47:06 08:51:28 63° 101° (E) 08:55:53 145.935
SO-50 20 Jan 08:47:53 08:52:06 32° 311° (NW) 08:56:17 436.795
JAS-2 20 Jan 08:50:15 08:53:48 18° 59° (ENE) 08:57:32 435.910
UWE-3 20 Jan 08:50:37 08:54:57 64° 285° (WNW) 08:59:23 435.000/436.395/437.385
CUTE 1.7 + AOD 2 20 Jan 08:51:39 08:54:30 18° 294° (WNW) 08:57:21 437.475
GONETS M04 20 Jan 08:52:35 08:58:45 22° 281° (W) 09:04:55
UNISAT 6 20 Jan 09:03:36 09:07:47 59° 74° (ENE) 09:11:59 437.425
ZACube-1 20 Jan 09:10:03 09:14:24 66° 284° (WNW) 09:18:50 437.345
TIGRISAT 20 Jan 09:16:59 09:21:14 78° 76° (ENE) 09:25:29 435.000
HUMSAT D 20 Jan 09:23:58 09:27:36 27° 95° (E) 09:31:14 437.325/437.525
PCSat 20 Jan 09:25:39 09:31:01 55° 57° (ENE) 09:36:19 145.827
POPSAT HIP 1 20 Jan 09:29:29 09:30:03 10° 62° (ENE) 09:30:38 437.405
ANTELSAT 20 Jan 09:32:12 09:36:25 66° 259° (W) 09:40:41 437.575/2403.000
DELFI C3 20 Jan 09:33:12 09:37:12 63° 101° (E) 09:41:07 145.870
HO-68 20 Jan 09:38:16 09:43:17 21° 304° (WNW) 09:48:17 435.675
COMPASS 1 20 Jan 09:39:29 09:41:05 12° 297° (WNW) 09:42:40 437.405
DUCHIFAT 1 20 Jan 09:39:39 09:41:08 12° 63° (ENE) 09:42:36 145.980
NANOSAT C BR1 20 Jan 09:44:09 09:46:27 15° 64° (ENE) 09:48:45 145.865
Oscar 11 20 Jan 09:47:28 09:51:19 31° 290° (WNW) 09:55:09 145.826/435.025
AAUSAT CUBESAT 2 20 Jan 09:51:14 09:52:36 11° 297° (WNW) 09:53:59 437.432
RS-15 20 Jan 09:52:22 10:03:47 48° 251° (WSW) 10:14:48 29.354- 29.394
ESTCUBE 1 20 Jan 10:13:44 10:15:31 12° 90° (E) 10:17:20 437.505/2401.250
FUNcube-1 20 Jan 10:25:15 10:27:11 13° 296° (WNW) 10:29:08 145.935
JAS-2 20 Jan 10:32:59 10:38:12 63° 260° (W) 10:43:57 435.910
QB50P1 20 Jan 10:34:12 10:38:18 56° 74° (ENE) 10:42:25 145.935-145.965
POLYITAN 1 20 Jan 10:38:16 10:42:23 63° 75° (ENE) 10:46:33 437.675
QB50P2 20 Jan 10:39:27 10:43:37 70° 76° (ENE) 10:47:49 145.880/145.840
UNISAT 6 20 Jan 10:43:34 10:44:53 11° 270° (W) 10:46:13 437.425
HUMSAT D 20 Jan 10:59:33 11:03:07 26° 291° (WNW) 11:06:41 437.325/437.525
BY70-1 20 Jan 11:00:58 11:04:19 86° 288° (WNW) 11:07:26 436.1900
POPSAT HIP 1 20 Jan 11:01:02 11:05:13 73° 258° (WSW) 11:09:24 437.405
Oscar 19 20 Jan 11:03:43 11:06:00 13° 59° (ENE) 11:08:18 437.125/150
PCSat 20 Jan 11:10:01 11:13:57 21° 254° (WSW) 11:17:52 145.827
DELFI C3 20 Jan 11:10:34 11:11:26 11° 297° (WNW) 11:12:18 145.870
Cosmos 2491 20 Jan 11:11:02 11:15:55 16° 60° (ENE) 11:20:46 435.465 / 435.565
CUBEBUG 1 20 Jan 11:11:17 11:15:06 29° 96° (E) 11:18:51 437.445
DUCHIFAT 1 20 Jan 11:12:09 11:16:16 62° 259° (W) 11:20:25 145.980
NANOSAT C BR1 20 Jan 11:17:43 11:21:45 48° 260° (W) 11:25:49 145.865
